Regional Weather Roundup
Issued by NWS Pendleton, OR

Home | Current Version | Previous Version | Text Only | Print | Product List | Glossary On
Versions: 1 2 3 4 5 6 7 8 9 10 11 12 13 14 15 16 17 18 19 20 21 22 23 24 25 26 27 28 29 30 31 32 33 34 35 36 37 38 39 40 41 42 43 44 45 46 47 48 49 50
000
ASUS46 KPDT 201625
RWRPDT
PENDLETON REGIONAL WEATHER ROUNDUP
NATIONAL WEATHER SERVICE PENDLETON OREGON
900 AM PDT FRI OCT 20 2017

NOTE: FAIR INDICATES FEW OR NO CLOUDS BELOW 12,000 FEET WITH NO
SIGNIFICANT WEATHER AND/OR OBSTRUCTIONS TO VISIBILITY.

# INDICATES UNOFFICIAL STATION AND DATA

WAZ520-201710-
EAST SLOPES OF WASHINGTON CASCADES

CITY            SKY/WX      TMP DP  RH  WIND    PRES   REMARKS
#BULLFROG       N/A         41  39  93  W1      N/A
#CLE ELUM HS    N/A         42  37  82  W7      29.58S
#CLE ELUM LAKE  N/A         38  37  96  CALM    29.62R
#EASTON DOT     N/A         37  37  100 N2      N/A
#ELK HTS DOT    N/A         42  41  96  W5      N/A
#GLENWOOD       N/A         41  38  89  S5      29.71R
#NELSON 3SW     N/A         41  35  79  SE1     29.82R
#NILE           N/A         40  37  89  CALM    28.90R
#TEANAWAY 4NE   N/A         44  40  86  W2      N/A
#TROUT LAKE 1NE N/A         40  38  92  N3      29.72R
#TROUT LAKE 1E  N/A         40  39  96  CALM    29.74R
$$

WAZ521-201710-
SIMCOE HIGHLANDS

CITY            SKY/WX      TMP DP  RH  WIND    PRES   REMARKS
#BICKLETON HS   N/A         41  38  89  SW17    29.68R WCI 33
#CENTERVILLE 1SWN/A         44  39  82  W14     29.69R WCI 37
#GOLDENDALE 4W  N/A         45  27  49  W9      29.76
#GOODNOE HILLS  N/A         47  43  86  W18     N/A    WCI 40
#LYLE 6NE       N/A         44  42  93  SW13    29.73R WCI 38
#PITT 4SE       N/A         40  39  96  W8      29.74R
$$

WAZ026-201710-
KITTITAS VALLEY

CITY            SKY/WX      TMP DP  RH  WIND    PRES   REMARKS
ELLENSBURG AP   PTCLDY      47  36  65  W16G26  29.60R WCI 41
#ELLENSBURG CWU N/A         46  38  73  W3      29.56R
#ELLENSBURG 3NE N/A         45  38  76  NW7     27.71R
#ELLENSBURG 1E  N/A         46  38  73  NW1     29.66R
#KITTITAS 3S    N/A         44  39  82  NW3     29.61R
#MANASTASH RDG  N/A         42  41  96  W3      N/A
#ROCKY CYN DOT  N/A         45  37  73  NW12    N/A    WCI 39
#RYEGRASS DOT   N/A         41  33  73  SW21G31 N/A    WCI 32
$$

WAZ027-201710-
YAKIMA VALLEY

CITY            SKY/WX      TMP DP  RH  WIND    PRES   REMARKS
SUNNYSIDE AP    PTCLDY      46  39  76  CALM    29.67R
YAKIMA AIRPORT  PTCLDY      46  38  73  E6      29.65R
YAKIMA-VAGABOND SUNNY       47  38  71  CALM    29.61R
#DONALD 2NE     N/A         56   8  14  SE3     29.68R
#GRANDVIEW      N/A         47  37  68  CALM    29.62R
#MABTON         N/A         51  38  61  CALM    29.67R
#MOXEE 2E       N/A         50  N/A N/A S6      29.47R
#NACHES 2SW     N/A         45  37  73  NW1     29.51S
#OUTLOOK DOT    N/A         49  40  71  CALM    29.63R
#PARKER DOT     N/A         51  37  59  W2      29.64R
#TERRACE HTS    N/A         47  39  74  CALM    29.60R
#TOPPENISH      N/A         49  40  71  CALM    29.58R
#I82 S UMTANUM RN/A         45  37  73  SE2     N/A
#UNION GAP DOT  N/A         44  38  79  CALM    N/A
#W YAKIMA       N/A         48  39  71  E2      29.64R
#WHITE SWAN 5E  N/A         53  36  52  SW7     29.63R
#WILEY CITY 3W  N/A         51  33  50  CALM    29.60R
#ZILLAH DOT     N/A         49  38  66  E1      N/A
$$

WAZ028-201710-
LOWER COLUMBIA BASIN...WASHINGTON

CITY            SKY/WX      TMP DP  RH  WIND    PRES   REMARKS
HANFORD         MOSUNNY     47  38  71  W9      29.62R
PASCO           PTCLDY      51  41  68  SW22G31 29.66R
PROSSER AWOS    N/A         50  41  71  CALM    29.71R
RICHLAND AWOS   PTCLDY      53  42  66  SW9     29.67R
#BENTON CITY    N/A         50  41  71  S1      29.57R
#CONNELL 5N     N/A         45  43  93  SW3     29.61R
#CONNELL 5NW    N/A         44  41  89  SW5     29.56R
#ELTOPIA 6NW    N/A         46  42  86  CALM    28.62R
#KAHLOTUS       N/A         46  41  83  W29G36  29.59R WCI 37
#KENNEWICK 3S   N/A         48  42  80  E10     29.65R
#PROSSER DOT    N/A         49  42  77  CALM    29.68R
#SAGEMOOR 2W    N/A         47  42  83  SW10    29.50R
#TOUCHET 2S     N/A         50  40  68  W17G28  29.65R
#WEST PASCO     N/A         52  43  71  CALM    29.62R
$$

WAZ029-201710-
FOOTHILLS OF THE BLUES...WASHINGTON

CITY            SKY/WX      TMP DP  RH  WIND    PRES   REMARKS
WALLA WALLA AP  CLOUDY      49  39  68  SW14    29.68R WCI 44
#CLYDE 6NW      N/A         46  40  79  SW15    29.62R WCI 40
#DAYTON SCHOOL  N/A         47  34  60  SW6G35  29.69R
#DELANEY DOT    N/A         49  39  68  SE12    29.66R WCI 44
#LOWDEN 2SE     N/A         50  41  71  W13     29.65R
#PLEASANT VIEW 1N/A         44  41  89  S17     29.64R WCI 36
#PRESCOTT       N/A         49  43  80  CALM    29.66R
#WHITMAN COLLEGEN/A         50  39  66  SW12    29.74R
#WAITSBURG 6SSE N/A         46  37  71  SE5     29.67R
#WAITSBURG 8N   N/A         44  N/A N/A S14     29.70R WCI 37
#WALLA WALLA 5E N/A         48  41  77  SW14    N/A    WCI 42
#WHITMAN MISSIONN/A         51  42  71  SW7     29.69R
$$

WAZ030-201710-
BLUE MOUNTAINS...WASHINGTON

CITY            SKY/WX      TMP DP  RH  WIND    PRES   REMARKS
#DIXIE 5SE      N/A         40  36  85  SW15    29.58R WCI 32
$$

ORZ009-041-WAZ024-201710-
COLUMBIA RIVER GORGE

CITY            SKY/WX      TMP DP  RH  WIND    PRES   REMARKS
HOOD RIVER AP   LGT RAIN    46  43  89  CALM    29.75R
THE DALLES AP   MOCLDY      53  41  64  VRB7    29.73R
#ARLINGTON AIRPON/A         48  41  77  SW15    29.71R WCI 42
#CELILO DOT     N/A         50  40  68  SW6     N/A
#LYLE           N/A         51  44  77  W13     29.76R
#MARYHILL       N/A         49  41  74  N12     29.60R WCI 44
#MURDOCK        N/A         53  43  69  W7      29.71R
#SMITHVILLE     N/A         52  44  74  N5      29.87R

$$

ORZ510-201710-
NORTH CENTRAL OREGON

CITY            SKY/WX      TMP DP  RH  WIND    PRES   REMARKS
#ANTELOPE       N/A         40  36  85  SW5     29.61R
#CHENOWITH 1W   N/A         44  39  82  W15G25  N/A    WCI 37
#COW CYN RST AREN/A         40  37  89  SW9     N/A
#DUFUR          N/A         44  39  82  CALM    29.69R
#DUFUR 9E       N/A         42  36  79  SW12    29.75R WCI 35
#GRASS VALLEY 1SN/A         43  37  79  SW13    29.75R WCI 36
#KENT DOT       N/A         40  30  67  SW16    N/A    WCI 32
#MAUPIN SCHOOL  N/A         50  37  61  SW2     29.81R
#MORO SCHOOL    N/A         45  41  86  SW9     29.72R
#SHANIKO 5WSW   N/A         37  10  32  SW14    N/A    WCI 28
#SHANIKO 4NW    N/A         37  35  92  SW13    29.71R WCI 29
#TYGH VALLEY 2NEN/A         48  37  65  N13     29.73R WCI 43
#WAPANITIA AIRPON/A         44  37  76  W6      29.76R
#WASCO DOT      N/A         46  40  79  W3      N/A
#WASCO 5NE      N/A         44  37  76  SW7     29.70R
$$

ORZ511-201710-
CENTRAL OREGON

CITY            SKY/WX      TMP DP  RH  WIND    PRES   REMARKS
BEND AIRPORT    PTCLDY      43  32  65  S17G24  29.79R WCI 35
MADRAS AIRPORT  MOCLDY      46  46  100 S14     29.80R WCI 40
PRINEVILLE AP   MOCLDY      43  34  70  CALM    29.79R
REDMOND AIRPORT MOCLDY      41  32  70  CALM    29.78R
#ASHWOOD SCHOOL N/A         44  35  70  S1      29.75R
#BEND 1SW       N/A         39  34  82  W3      N/A
#BEND-AWBREY    N/A         40  34  79  SW9     29.75R
#BEND-KIM LN    N/A         44  33  65  W6      29.69R
#CULVER         N/A         43  33  67  S7      29.62R
#CULVER 8W      N/A         44  33  65  SE3     29.81R
#LAKE BILLY CHINN/A         46  N/A N/A SW12    29.86R WCI 40
#MADRAS 4S      N/A         44   4  19  SW18    N/A    WCI 36
#POWELL BUTTE   N/A         42  32  67  SW10    29.76R
#PRINEVILLE     N/A         40  37  89  CALM    29.84R
#PRINEVILLE 3N  N/A         42  38  86  E3      29.76R
#WARM SPRINGS   N/A         43  37  79  CALM    29.64R

$$


ORZ509-201710-
EAST SLOPES OF OREGON CASCADES

CITY            SKY/WX      TMP DP  RH  WIND    PRES   REMARKS
SISTERS AWOS    N/A         41  34  76  W12G31  N/A    WCI 34
#BLUE BOX PASS  N/A         34  N/A N/A CALM    N/A
#CAMP SHERMAN   N/A         37  34  89  CALM    29.85R
#LA PINE DOT    N/A         36  30  79  SE6     N/A
#LA PINE 4NW    N/A         33  30  89  CALM    29.84R
#LAVA BUTTE DOT N/A         35  31  85  SE5     N/A
#SISTERS ODOT   N/A         41  32  70  SW6     N/A
#SISTERS 3N     N/A         40  31  70  W2      29.82R
#SUNRIVER       N/A         37  34  89  W3      29.78R
#TUMALO 3W      N/A         41  33  73  NE2     29.62R
#WANOGA BUTTE D N/A         30  25  81  W20     N/A    WCI 17

$$

ORZ044-201710-
LOWER COLUMBIA BASIN...OREGON

CITY            SKY/WX      TMP DP  RH  WIND    PRES   REMARKS
HERMISTON       SUNNY       50  40  68  SW18G24 29.69R
#BOARDMAN SCHOOLN/A         52  41  66  S14     29.68R
#BOARDMAN 8SW   N/A         50  42  74  SW15    29.70R
#ECHO 8SW       N/A         50  39  66  W9G24   29.71R
#I-84 EX 198 DOTN/A         49  36  61  E21     N/A    WCI 42
#IONE SCHOOL    N/A         50  33  52  SW8     29.72R
#UMATILLA       N/A         51  39  63  W10     29.62R
$$

ORZ507-201710-
NORTHERN FOOTHILLS OF THE BLUES

CITY            SKY/WX      TMP DP  RH  WIND    PRES   REMARKS
PENDLETON AIRPT PTCLDY      48  37  65  W17     29.69R WCI 42
#ADAMS 3WNW     N/A         46  40  79  SW12    29.68R WCI 40
#ATHENA         N/A         45  40  82  W1      29.71R
#CAYUSE         N/A         47  38  71  SW12    29.68R WCI 42
#HELIX SCHOOL   N/A         44  39  82  N8      29.67R
#HELIX 3N       N/A         43  38  82  SW20    29.66R WCI 34
#HOLDMAN 5SE    N/A         47  40  76  SW15    29.70R WCI 41
#HOLDMAN 6E     N/A         44  39  82  SW15    29.48R WCI 37
#M-F GROVE ELEM N/A         48  38  68  SW1     29.65R
#M-FREEWATER 5SEN/A         48  38  68  SW9     29.70R
#PENDLETON DNTN N/A         46  43  89  SW5     29.69R
#PDT AQUATIC CTRN/A         49  40  71  CALM    29.69R
#PDT SUNRIDGE   N/A         48  38  68  SW3     29.72R
#PENDLETON 7NW  N/A         48  39  71  SW15G25 N/A    WCI 42
#PILOT ROCK     N/A         48  37  65  CALM    29.75R
#TUTUILLA       N/A         47  39  74  SW5     29.75R
#UMAPINE 2E     N/A         50  41  71  SW10    29.66R
#WESTON SCHOOL  N/A         46  37  71  NW8     29.64R

$$

ORZ508-201710-
SOUTHERN FOOTHILLS OF THE BLUES

CITY            SKY/WX      TMP DP  RH  WIND    PRES   REMARKS
LEXINGTON       PTCLDY      50  37  61  SW17G26 29.76R
#FOSSIL SCHOOL  N/A         44  36  73  W10     29.70R
#HEPPNER EOC    N/A         47  36  65  W8      29.64R
#HEPPNER 4NE    N/A         43  36  76  W10G25  29.68R
#LEXINGTON 2SE  N/A         51  38  61  SW12    29.68R
#MIKKALO        N/A         46  34  63  W9      29.81R
#OLEX 4N        N/A         47  39  74  SW12    29.72R WCI 42
#RUGGS 5NE      N/A         45  35  68  SW10    29.88R
#RUGGS 2SW      N/A         44  35  70  W13     29.71R WCI 38

$$

ORZ502-503-201710-
BLUE MOUNTAINS

CITY            SKY/WX      TMP DP  RH  WIND    PRES   REMARKS
MEACHAM         CLOUDY      38  34  85  CALM    29.67R
#BATTLE MTN DOT N/A         36  35  96  E2      N/A
#GRANITE        N/A         35  30  82  CALM    29.77R
#GREENHORN 9SW  N/A         36  35  96  CALM    25.95R
#HEPPNER 15SE   N/A         36  33  89  W5      29.75R
#LADD CYN SMT   N/A         39  35  85  E2      N/A
#LADD CREEK ODOTN/A         40  39  96  SW2     N/A
#LONG CREEK HS  N/A         40  37  89  W8      29.74R
#N POWDER DOT   N/A         39  38  96  NE3     N/A
#TOLLGATE       N/A         31  30  96  S6      29.55R
#TROY SCHOOL    N/A         44  41  89  CALM    29.51R
#UKIAH          N/A         40  36  85  S1      29.61R
#WESTON 4E      N/A         40  36  85  SW7     29.63R
$$

ORZ505-201710-
JOHN DAY BASIN

CITY            SKY/WX      TMP DP  RH  WIND    PRES   REMARKS
JOHN DAY        CLOUDY      42  39  89  W7      29.76R
#ANTELOPE 9ESE  N/A         49  36  61  W1      N/A
#DAYVILLE SCHOOLN/A         45  36  70  CALM    29.74R
#MITCHELL 8NW   N/A         41  32  70  SW3     29.78R
#MONUMENT HS    N/A         43  41  93  CALM    29.73
#SPRAY SCHOOL   N/A         44  N/A N/A CALM    N/A
$$

ORZ506-201710-
OCHOCO AND JOHN DAY HIGHLANDS

CITY            SKY/WX      TMP DP  RH  WIND    PRES   REMARKS
#HORSE RIDGE DO N/A         40  28  62  W12     N/A    WCI 33
#IZEE 6NW       N/A         40  33  76  NW2     N/A
#PAULINA ODOT   N/A         40  33  76  SW8     N/A
#PINE MTN OBS   N/A         29  26  88  CALM    N/A
#PRAIRIE CITY   N/A         38  38  100 CALM    29.89R
#SENECA         N/A         35  N/A N/A W5      N/A
#SENECA 9NW     N/A         33  31  92  CALM    29.70R
$$

ORZ049-201710-
GRANDE RONDE VALLEY

CITY            SKY/WX      TMP DP  RH  WIND    PRES   REMARKS
LA GRANDE       CLOUDY      42  38  86  SE3     29.71R
#COVE           N/A         41  40  96  E1      29.76R
#COVE SCHOOL    N/A         40  37  89  CALM    29.74R
#COVE 6NW       N/A         42  38  86  CALM    29.66
#ELGIN 3N       N/A         41  36  82  S1      30.13R
#ELGIN 1E       N/A         42  37  82  CALM    N/A
#IMBLER SCHOOL  N/A         41  36  82  S3      29.69R
#ISLAND CITY 4N N/A         47  46  96  CALM    29.78R
#UNION 1S       N/A         42  38  86  E3      29.66R
$$

ORZ050-201710-
WALLOWA COUNTY

CITY            SKY/WX      TMP DP  RH  WIND    PRES   REMARKS
JOSEPH AIRPORT  LGT RAIN    34  34  100 CALM    29.67R
#ENTERPRISE HS  N/A         37  35  92  CALM    29.48R
#IMNAHA SCHOOL  N/A         42  38  86  N5      29.71R
#IMNAHA 10S     N/A         35  33  92  S5      29.70R
#JOSEPH         N/A         35  34  96  E1      30.15R
#JOSEPH 3N      N/A         35  32  89  SE2     29.72R
#JOSEPH 3W      N/A         33  33  100 CALM    30.13R
#LOSTINE        N/A         37  34  89  CALM    29.44R
#LOSTINE 3SE    N/A         37  34  89  CALM    29.71R
#MT HOWARD 8000 N/A         23  21  92  SW10    29.58R
#PROMISE 1S     N/A         37  34  89  SW7     29.71R
#WALLOWA LAKE   N/A         33  32  96  CALM    29.68R
#WALLOWA SCHOOL N/A         41  35  79  W1      29.67R



$$



USA.gov is the U.S. government's official web portal to all federal, state and local government web resources and services.